Flag for France Weather past 2 weeks in Rodez, France

Now
36 °F

Rain. Fog.


Feels Like: 30 °F
Forecast: 31 / 36 °F
Wind: 7 mph from West

Location: Rodez Airport

Current Time: Jan 30, 2015 at 8:36:02 PM

Latest Report: Jan 30, 2015 at 8:00 PM


Visibility: 3 mi

Pressure: 29.18 "Hg

Humidity: 93%

Dew point: 34 °F

Location of RodezLocation

Historic Weather in Rodez — Graph

°F

Rodez temperature yesterday

Maximum temperature yesterday: 46 °F (at 8:30 PM)
Minimum temperature yesterday: 41 °F (at 4:00 AM)
Average temperature yesterday: 42 °F

Past Weeks' High & Low Weather Summary

 TemperatureHumidityPressure
High48 °F (Jan 16, 7:00 AM)100% (Jan 16, 1:00 PM)30.39 "Hg (Jan 16, 1:00 PM)
Low25 °F (Jan 21, 6:30 AM)57% (Jan 21, 3:00 PM)29.15 "Hg (Jan 29, 8:00 PM)
Average35 °F88%29.94 "Hg
* Reported Jan 15 7:00 PM — Jan 30 7:30 PM, Rodez, Weather by CustomWeather, © 2014

Note: Actual official high and low records may vary slightly from our data, if they occured in-between our weather recording intervals... More about our weather records

Advertising

Rodez weather history for previous 24 hours

 ConditionsComfort  
Time TempWeatherWind HumidityBarometerVisibility
7:30 PM
Jan 30
36 °FMostly cloudy.13 mph93%29.18 "HgN/A
7:00 PM36 °FMostly cloudy.16 mph93%29.18 "HgN/A
6:30 PM37 °FOvercast.15 mph87%29.15 "HgN/A
6:00 PM36 °FMostly cloudy.15 mph93%29.15 "HgN/A
5:30 PM36 °FOvercast.18 mph93%29.15 "HgN/A
5:00 PM37 °FMostly cloudy.15 mph87%29.15 "HgN/A
4:30 PM37 °FOvercast.20 mph87%29.15 "HgN/A
4:00 PM37 °FMostly cloudy.16 mph87%29.15 "HgN/A
3:30 PM36 °FLight rain. Cloudy.17 mph93%29.18 "Hg6 mi
3:00 PM37 °FMostly cloudy.15 mph93%29.18 "HgN/A
2:30 PM37 °FLight rain. Mostly cloudy.15 mph93%29.18 "HgN/A
2:00 PM36 °FLight snow. Mostly cloudy.13 mph93%29.21 "Hg4 mi
1:30 PM36 °FLight snow. Mostly cloudy.14 mph87%29.24 "HgN/A
1:00 PM36 °FLight rain. Partly sunny.13 mph81%29.24 "HgN/A
12:30 PM36 °FMore clouds than sun.8 mph81%29.27 "HgN/A
12:00 PM34 °FPartly sunny.9 mph87%29.27 "HgN/A
11:30 AM34 °FPartly sunny.12 mph87%29.30 "HgN/A
11:00 AM34 °FPartly sunny.10 mph87%29.30 "HgN/A
10:30 AM34 °FBroken clouds.12 mph87%29.30 "HgN/A
10:00 AM32 °FMostly cloudy.12 mph93%29.30 "HgN/A
9:30 AM32 °FPartly sunny.15 mph93%29.30 "HgN/A
9:00 AM32 °FLight snow. Ice fog.15 mph93%29.30 "Hg1 mi
8:30 AM32 °FLight snow. Ice fog.17 mph93%29.30 "Hg1 mi
8:00 AM32 °FMostly cloudy.16 mph93%29.30 "HgN/A
7:30 AM34 °FMostly cloudy.13 mph87%29.27 "HgN/A
7:00 AM34 °FPassing clouds.20 mph81%29.27 "HgN/A
6:30 AM34 °FMostly cloudy.21 mph87%29.24 "HgN/A
6:00 AM34 °FOvercast.16 mph93%29.24 "HgN/A
5:30 AM32 °FLight rain. Passing clouds.12 mph100%29.24 "HgN/A
5:00 AM34 °FMostly cloudy.16 mph93%29.24 "HgN/A
4:30 AM34 °FMostly cloudy.17 mph100%29.24 "HgN/A
4:00 AM36 °FLight rain. Low clouds.26 mph93%29.21 "Hg5 mi
3:30 AM36 °FLight rain. Mostly cloudy.22 mph93%29.21 "HgN/A
3:00 AM37 °FLow clouds.18 mph93%29.21 "HgN/A
2:30 AM37 °FMostly cloudy.18 mph93%29.21 "HgN/A
2:00 AM37 °FRain. Mostly cloudy.23 mph87%29.21 "HgN/A
1:30 AM39 °FLight rain. Mostly cloudy.23 mph87%29.21 "HgN/A
1:00 AM39 °FMostly cloudy.20 mph93%29.21 "HgN/A
12:30 AM37 °FLight rain. Low clouds.23 mph93%29.21 "HgN/A
12:00 AM39 °FRain. Fog.25 mph93%29.21 "Hg3 mi
11:30 PM
Jan 29
41 °FRain. Fog.22 mph93%29.18 "Hg2 mi
11:00 PM41 °FLight rain. Passing clouds.21 mph93%29.18 "Hg5 mi
10:30 PM43 °FMostly cloudy.29 mph87%29.18 "HgN/A
10:00 PM45 °FLight rain. Fog.25 mph93%29.18 "Hg3 mi
9:30 PM45 °FHeavy rain. Fog.29 mph100%29.15 "Hg1 mi
9:00 PM46 °FLight rain. Mostly cloudy.29 mph93%29.15 "Hg4 mi
8:30 PM46 °FLight rain. Mostly cloudy.25 mph93%29.18 "Hg5 mi
8:00 PM45 °FLight rain. Fog.21 mph93%29.15 "Hg1 mi
Weather by CustomWeather, © 2014

See weather overviewHow to use our weather pages